PROFILE

 METAR AND TAF INFORMATION
ADDS - METARS form results

(1440 UTC 18 October 2018)
http://aviationweather.gov/metar/data/
 
LSGG 181420Z 05008KT CAVOK 20/09 Q1016 NOSIG
LSGG 181350Z 05009KT CAVOK 20/09 Q1016 NOSIG
TAF LSGG 181425Z 1815/1921 04006KT CAVOK TX20/1815Z TN07/1906Z TX19/1915Z PROB40 TEMPO 1900/1909 4800 BR SCT010 

 AIRPORT MAP

 RUNWAY INFORMATION
Runway 05 Runway length 12795 ft Runway width 164 ft
Runway elevation 1411 ft Runway displaced threshold 1082 ft Runway heading 46
Runway 23 Runway length 12795 ft Runway width 164 ft
Runway elevation 1365 ft Runway displaced threshold 0 ft Runway heading 226
Runway 05L Runway length 2700 ft Runway width 98 ft
Runway elevation 1378 ft Runway displaced threshold 613 ft Runway heading 46
Runway 23R Runway length 2700 ft Runway width 98 ft
Runway elevation 1393 ft Runway displaced threshold 994 ft Runway heading 226

 AIRPORT FREQUENCIES
Type APP Name APP Frequency 120.3 MHZ
Type ARR Name ARR Frequency 136.25 MHZ
Type ATIS Name ATIS Frequency 135.575 MHZ
Type DEP Name DEP Frequency 119.525 MHZ
Type GND Name GND Frequency 121.675 MHZ
Type GTE Name APN Frequency 121.75 MHZ
Type TWR Name TWR Frequency 118.7 MHZ

 AIRPORT NEAR NAVIGATION AIDS
Type NDB Name Gland Frequency 375 KHZ
Type VOR-DME Name Geneva Cointrin Frequency 115750 KHZ
Type VOR-DME Name Passeiry Frequency 116600 KHZ